TimeCDT,TemperatureF,Dew PointF,Humidity,Sea Level PressureIn,VisibilityMPH,Wind Direction,Wind SpeedMPH,Gust SpeedMPH,PrecipitationIn,Events,Conditions,WindDirDegrees,DateUTC
12:56 AM,64.9,52.0,63,30.17,10.0,NNE,4.6,-,N/A,,Clear,30,2013-05-25 05:56:00
1:56 AM,63.0,52.0,67,30.17,10.0,NE,8.1,-,N/A,,Clear,40,2013-05-25 06:56:00
2:56 AM,62.1,52.0,70,30.17,10.0,NE,6.9,-,N/A,,Clear,40,2013-05-25 07:56:00
3:56 AM,61.0,51.1,70,30.17,10.0,NE,10.4,-,N/A,,Clear,50,2013-05-25 08:56:00
4:56 AM,60.1,50.0,69,30.19,10.0,NE,8.1,-,N/A,,Clear,50,2013-05-25 09:56:00
5:56 AM,59.0,48.9,69,30.21,10.0,NE,8.1,-,N/A,,Scattered Clouds,40,2013-05-25 10:56:00
6:56 AM,60.1,46.9,62,30.22,10.0,NE,9.2,-,N/A,,Scattered Clouds,50,2013-05-25 11:56:00
7:56 AM,66.0,48.0,52,30.24,10.0,NE,8.1,-,N/A,,Scattered Clouds,50,2013-05-25 12:56:00
8:56 AM,71.1,48.0,44,30.25,10.0,ENE,9.2,-,N/A,,Partly Cloudy,70,2013-05-25 13:56:00
9:56 AM,75.9,48.0,37,30.25,10.0,East,6.9,-,N/A,,Partly Cloudy,80,2013-05-25 14:56:00
10:56 AM,80.1,48.9,34,30.25,10.0,East,4.6,-,N/A,,Partly Cloudy,100,2013-05-25 15:56:00
11:56 AM,82.0,48.0,30,30.24,10.0,ENE,3.5,-,N/A,,Partly Cloudy,60,2013-05-25 16:56:00
12:56 PM,82.9,46.0,27,30.22,10.0,Variable,3.5,-,N/A,,Partly Cloudy,0,2013-05-25 17:56:00
1:56 PM,86.0,48.0,27,30.19,10.0,ESE,5.8,-,N/A,,Partly Cloudy,110,2013-05-25 18:56:00
2:56 PM,88.0,48.0,25,30.18,10.0,SSE,8.1,-,N/A,,Partly Cloudy,160,2013-05-25 19:56:00
3:56 PM,86.0,46.9,26,30.17,10.0,Calm,Calm,-,N/A,,Partly Cloudy,0,2013-05-25 20:56:00
4:56 PM,84.0,44.1,25,30.16,10.0,SSW,5.8,-,N/A,,Partly Cloudy,200,2013-05-25 21:56:00
5:56 PM,84.0,46.0,26,30.17,10.0,SSW,3.5,-,N/A,,Clear,200,2013-05-25 22:56:00
6:56 PM,79.0,57.0,47,30.16,10.0,South,8.1,-,N/A,,Clear,190,2013-05-25 23:56:00
7:56 PM,73.9,57.0,55,30.16,10.0,South,3.5,-,N/A,,Clear,190,2013-05-26 00:56:00
8:56 PM,68.0,57.0,68,30.17,10.0,Calm,Calm,-,N/A,,Clear,0,2013-05-26 01:56:00
9:56 PM,69.1,57.0,65,30.19,10.0,South,3.5,-,N/A,,Clear,190,2013-05-26 02:56:00
10:56 PM,64.9,57.9,78,30.19,10.0,Calm,Calm,-,N/A,,Clear,0,2013-05-26 03:56:00
11:56 PM,64.9,57.0,75,30.18,10.0,Calm,Calm,-,N/A,,Clear,0,2013-05-26 04:56:00